Погода в Минске

Хотите узнать прогноз погоды Минск? Тогда Вам сюда: Погода Минск

Поиск расширенной информации на нашем сайте:

Полезная информация:

Новости сайта



02.01.2020
Опубликован Долгосрочный прогноз погоды по городам России и ближнего зарубежья на январь 2020 года.
Карты: Прогноз на январь и февраль 2020 года, Сравнение прогнозируемой аномалии приземной температуры воздуха на январь 2020 года по разным моделям.




Погода в Минске - сегодня

Время (UTC), дата Ветер
(°,м/с) 
Видим.   Явления Облачность Т
(°С)
Тd
(°С)
f(%) Тe
(°С)
Pmin
(гПа)
dP
(гПа)
Po
(мм)
O2
(г/м3)
Тmin Tmax R s Состояние
почвы
12 22.10.21 240 (ЮЗ) 5-11{13}  30000 м  {ливн. осадки}  10/5 1410 м верхняя 
[Sc|Cs]
+8.5 +0.6 58 +7  1004.2  1.5  732  286      0.0     
15 22.10.21 220 (ЮЗ) 5{12}  25000 м    10/10 1440 м 
[Sc]
+8.4 +0.7 58 +7  1004.6  0.4  733  286      0.0     
18 22.10.21 210 (ЮЗ) 5-10{11}  20000 м    10/10 1260 м 
[Sc]
+8 +1.2 62 +6  1004.3  -0.3  732  286    +8.9  0.0     
21 22.10.21 210 (ЮЗ) 6-10{14}  20000 м  {ливн. осадки}  10/8 930 м средняя 
[Sc|Ac und]
+6.7 +2.6 75 +5  1003.5  -0.9  732  287      0.2     
00 23.10.21 220 (ЮЗ) 5{12}  20000 м  {ливн. осадки}  10/10 700 м 
[Sc]
+6.8 +2.6 75 +5  1002.9  -0.6  731  287      0.0     
03 23.10.21 240 (ЮЗ) 3{10}  25000 м  {дождь}  8/8 630 м 
[Sc]
+6 +1.9 75 +5  1004.6  1.6  732  288      0.4     
06 23.10.21 250 (З) 20000 м  в посл. час ливневой дождь  10/10 720 м кучево-дожд. 
[Cb cap]
+5.2 +1.6 78 +4  1006.8  734  290  +4.9    0.4     
09 23.10.21 230 (ЮЗ) 4{10}  20000 м  {ливн. осадки}  9/9 800 м 
[Sc]
+5.8 +2.1 77 +4  1009.8  736  290      0.0     
12 23.10.21 240 (ЮЗ) 5{10}  25000 м  в посл. час дождь{ливн. осадки}  8/8 660 м 
[Sc]
+6.9 +2.8 75 +5  1011.3  1.6  737  289      0.0     
15 23.10.21 250 (З) 3{10}  25000 м    8/8 840 м 
[Sc]
+7.5 +2.4 70 +7  1012.8  1.5  738  289      0.0     
18 23.10.21 260 (З) 15000 м  в посл. час ливневой дождь  8/8 660 м кучево-дожд. 
[Cb cap]
+5.5 +4 90 +5  1015.1  2.1  740  292    +8.3  0.3     
21 23.10.21 280 (З) 15000 м    9/9 400 м 
[Sc]
+5.2 +2.9 85 +4  1017.3  2.1  742  293           
00 24.10.21 290 (З) 15000 м    6/6 840 м 
[Sc]
+3.9 +1.2 83 +3  1019.8  2.2  743  295           
03 24.10.21 300 (СЗ) 10 км  слаб. дождь  10/10 240 м 
[Frnb|Ns]
+3.2 +2.1 92 +2  1022  2.1  745  296      0.4     
06 24.10.21 300 (СЗ) 15000 м  {дождь}  9/9 720 м 
[Sc]
+2.8 +0.8 87 +1  1024.6  2.5  747  298  +2.8    0.7     
09 24.10.21 310 (СЗ) 4{10}  15000 м  {дождь}  8/8 630 м 
[Sc]
+3.3 -0.6 76 +1  1027.4  2.8  749  298      0.0     
12 24.10.21 310 (СЗ) 4{10}  15000 м  {дождь}  8/8 1050 м 
[Sc]
+5.1 -2.5 58 +3  1028.8  1.5  750  297           
15 24.10.21 300 (СЗ) 15000 м    6/0 средняя, верхняя 
[Ac trans|Ci fib]
+3.7 -1.6 68 +3  1030.1  1.1  751  299      0.0     
18 24.10.21 280 (З) 15000 м    6/0 средняя 
[Ac trans]
+1.2 -0.9 86 +2  1031.2  0.8  751  302    +5.9  0.0     
21 24.10.21 300 (СЗ) 30000 м    8/0 средняя 
[Ac trans]
-1.6 -2.2 96 -1  1032.2  0.7  752  305           
00 25.10.21 тихо ()   10 км    ясно 
-2.9 -3.4 96 -3  1032.8  0.4  752  307           
03 25.10.21 тихо ()   8000 м  дымка  ясно 
-4.1 -4.8 95 -4  1032.8  -0.1  752  308           
06 25.10.21 тихо ()   15000 м    4/0 верхняя 
[Ci fib]
-2.8 -3.3 96 -3  1032.6  752  307  -4.7         
09 25.10.21 200 (Ю) 20000 м    ясно 
+5.9 +1.2 72 +5  1031.5  -0.2  752  296           
12 25.10.21 190 (Ю) 20000 м    3/0 средняя 
[Ac trans]
+8.3 +0.7 59 +7  1029.8  -1.4  751  294           
Время (UTC), дата Ветер
(°,м/с) 
Видим.   Явления Облачность Т
(°С)
Тd
(°С)
f(%) Тe
(°С)
Pmin
(гПа)
dP
(гПа)
Po
(мм)
O2
(г/м3)
Тmin Tmax R s Состояние
почвы

Для получения пояснительной информации подведите курсор к названию столбца.

ПОГОДА в Минске - архив

Всё, что Вы хотите узнать о погоде в Минске - удобно и подробно!

Выберите нужную дату (начиная с 1 января 2019* года) и нажмите кнопку "Найти".
Будут отображены архивные сводки погоды по пункту Минск, начиная с указанной даты.


Отображать данные в формате CSV (для использования в таблицах Excel)


Внимание! Наш архив погоды предназначен исключительно для личного некоммерческого использования в познавательных целях. Если Вам необходимы официальные справки о состоянии погоды (для производственных, юридических, коммерческих и т.п. целей), обращайтесь в органы Росгидромета.

*Примечание: данная дата относится к архиву по метеостанциям СССР (Россия, СНГ, Балтия).
Архив по метеостанциям Зарубежной Европы и Азии (кроме Китая) хранится 10 дней, по другим регионам земного шара (Китай, Африка, Америка, Австралия, Океания) - 1 день.

Минск - район местоположения метеостанции


Название, широта, долгота, высота метеостанции:
Минск (город) 53.9°ш. 27.6°д. 231 м над ур. моря [Беларусь]

Дополнительная информация

В oтличие oт бoльшинства пoгoдных сайтoв мы публикуем пoдрoбную метеoинфoрмацию в детальнoм прoфессиoнальнoм фoрмате.

Характеристики температуры и влажнoсти вoздуха измеряются на высoте 2 м в тени вдали oт зданий и деревьев.
Скoрoсть ветра измеряется на высoте 10 м (на урoвне рoста челoвека скoрoсть ветра ниже в 1.5-2 раза). Если метеoстанция нахoдится в гoрoде или в лесу, тo скoрoсть ветра занижена на 2-4 м/с пo сравнению с oткрытым местoм. Скoрoсть ветра над акватoриями крупных рек и oзёр, а также на вершинах хoлмoв на 2-5 м/с выше, чем в oбычных услoвиях.
Атмoсфернoе давление в разных тoчках местнoсти мoжет значительнo oтличаться oт давления на метеoстанции, в зависимoсти oт услoвий рельефа (при пoдъёме на 10 м давление пoнижается примернo на 1 мм рт.ст.).